Time,TemperatureF,DewpointF,PressureIn,WindDirection,WindDirectionDegrees,WindSpeedMPH,WindSpeedGustMPH,Humidity,HourlyPrecipIn,Conditions,Clouds,dailyrainin,SoftwareType,DateUTC
2013-07-09 00:02:00,78.0,72.0,29.96,ESE,118,0.0,3.0,81,0.00,,,0.00,,2013-07-09 05:02:00,
2013-07-09 00:11:00,78.0,72.0,29.96,ESE,118,0.0,3.0,81,0.00,,,0.00,,2013-07-09 05:11:00,
2013-07-09 00:22:00,78.0,72.0,29.96,ESE,118,0.0,1.0,81,0.00,,,0.00,,2013-07-09 05:22:00,
2013-07-09 00:33:00,78.0,72.0,29.96,ESE,118,0.0,1.0,81,0.00,,,0.00,,2013-07-09 05:33:00,
2013-07-09 00:42:00,78.0,72.0,29.96,ESE,118,0.0,1.0,81,0.00,,,0.00,,2013-07-09 05:42:00,
2013-07-09 00:52:00,78.0,72.0,29.96,SSE,148,0.0,1.0,81,0.00,,,0.00,,2013-07-09 05:52:00,
2013-07-09 01:01:00,78.0,72.0,29.96,SE,143,0.0,1.0,81,0.00,,,0.00,,2013-07-09 06:01:00,
2013-07-09 01:11:00,78.0,72.0,29.96,SE,143,0.0,1.0,81,0.00,,,0.00,,2013-07-09 06:11:00,
2013-07-09 01:22:00,77.0,71.0,29.95,WSW,242,0.0,5.0,82,0.00,,,0.00,,2013-07-09 06:22:00,
2013-07-09 01:33:00,77.0,71.0,29.95,SSE,157,0.0,1.0,82,0.00,,,0.00,,2013-07-09 06:33:00,
2013-07-09 01:43:00,77.0,71.0,29.95,SSE,157,0.0,1.0,82,0.00,,,0.00,,2013-07-09 06:43:00,
2013-07-09 01:53:00,77.0,71.0,29.95,SSE,164,0.0,1.0,82,0.00,,,0.00,,2013-07-09 06:53:00,
2013-07-09 02:02:00,77.0,71.0,29.95,East,97,0.0,3.0,82,0.00,,,0.00,,2013-07-09 07:02:00,
2013-07-09 02:12:00,77.0,71.0,29.95,East,97,0.0,3.0,82,0.00,,,0.00,,2013-07-09 07:12:00,
2013-07-09 02:22:00,76.0,70.0,29.94,East,97,0.0,1.0,83,0.00,,,0.00,,2013-07-09 07:22:00,
2013-07-09 02:34:00,76.0,70.0,29.94,East,97,0.0,1.0,83,0.00,,,0.00,,2013-07-09 07:34:00,
2013-07-09 02:43:00,76.0,70.0,29.94,East,97,0.0,1.0,83,0.00,,,0.00,,2013-07-09 07:43:00,
2013-07-09 02:53:00,76.0,70.0,29.94,SE,134,0.0,5.0,83,0.00,,,0.00,,2013-07-09 07:53:00,
2013-07-09 03:01:00,76.0,70.0,29.94,SE,133,0.0,1.0,83,0.00,,,0.00,,2013-07-09 08:01:00,
2013-07-09 03:11:00,76.0,70.0,29.94,SE,133,0.0,1.0,83,0.00,,,0.00,,2013-07-09 08:11:00,
2013-07-09 03:22:00,77.0,71.0,29.94,SE,133,0.0,3.0,82,0.00,,,0.00,,2013-07-09 08:22:00,
2013-07-09 03:33:00,77.0,71.0,29.94,SE,134,0.0,1.0,82,0.00,,,0.00,,2013-07-09 08:33:00,
2013-07-09 03:43:00,77.0,71.0,29.94,SE,134,0.0,1.0,82,0.00,,,0.00,,2013-07-09 08:43:00,
2013-07-09 03:52:00,77.0,71.0,29.94,ESE,113,0.0,3.0,81,0.00,,,0.00,,2013-07-09 08:52:00,
2013-07-09 04:02:00,77.0,70.0,29.94,ESE,113,0.0,1.0,80,0.00,,,0.00,,2013-07-09 09:02:00,
2013-07-09 04:12:00,77.0,70.0,29.94,ESE,113,0.0,1.0,80,0.00,,,0.00,,2013-07-09 09:12:00,
2013-07-09 04:22:00,77.0,70.0,29.94,ENE,69,1.0,3.0,80,0.00,,,0.00,,2013-07-09 09:22:00,
2013-07-09 04:34:00,77.0,70.0,29.94,ESE,107,0.0,5.0,79,0.00,,,0.00,,2013-07-09 09:34:00,
2013-07-09 04:42:00,77.0,70.0,29.94,ESE,107,0.0,5.0,79,0.00,,,0.00,,2013-07-09 09:42:00,
2013-07-09 04:53:00,77.0,70.0,29.94,ESE,107,0.0,1.0,79,0.00,,,0.00,,2013-07-09 09:53:00,
2013-07-09 05:01:00,77.0,70.0,29.94,ESE,107,0.0,0.0,79,0.00,,,0.00,,2013-07-09 10:01:00,
2013-07-09 05:11:00,77.0,70.0,29.94,ESE,107,0.0,0.0,79,0.00,,,0.00,,2013-07-09 10:11:00,
2013-07-09 05:22:00,77.0,70.0,29.94,ESE,107,0.0,1.0,79,0.00,,,0.00,,2013-07-09 10:22:00,
2013-07-09 05:33:00,77.0,70.0,29.94,SSE,157,0.0,3.0,80,0.00,,,0.00,,2013-07-09 10:33:00,
2013-07-09 05:42:00,77.0,70.0,29.94,SSE,157,0.0,3.0,80,0.00,,,0.00,,2013-07-09 10:42:00,
2013-07-09 05:52:00,77.0,70.0,29.94,SE,132,1.0,5.0,80,0.00,,,0.00,,2013-07-09 10:52:00,
2013-07-09 06:01:00,77.0,71.0,29.94,SE,132,0.0,0.0,81,0.00,,,0.00,,2013-07-09 11:01:00,
2013-07-09 06:11:00,77.0,71.0,29.94,SE,132,0.0,0.0,81,0.00,,,0.00,,2013-07-09 11:11:00,
2013-07-09 06:22:00,76.0,71.0,29.94,SE,132,0.0,3.0,84,0.01,,,0.01,,2013-07-09 11:22:00,
2013-07-09 06:33:00,76.0,71.0,29.94,SE,132,0.0,0.0,85,0.01,,,0.01,,2013-07-09 11:33:00,
2013-07-09 06:42:00,76.0,71.0,29.94,SE,132,0.0,0.0,85,0.01,,,0.01,,2013-07-09 11:42:00,
2013-07-09 06:53:00,75.0,71.0,29.95,SE,132,0.0,0.0,87,0.01,,,0.01,,2013-07-09 11:53:00,
2013-07-09 07:02:00,75.0,71.0,29.95,SE,132,0.0,0.0,88,0.01,,,0.01,,2013-07-09 12:02:00,
2013-07-09 07:11:00,75.0,71.0,29.95,SE,132,0.0,0.0,88,0.01,,,0.01,,2013-07-09 12:11:00,
2013-07-09 07:22:00,75.0,72.0,29.95,SE,132,0.0,0.0,89,0.00,,,0.01,,2013-07-09 12:22:00,
2013-07-09 07:33:00,75.0,72.0,29.95,SE,132,0.0,1.0,89,0.00,,,0.01,,2013-07-09 12:33:00,
2013-07-09 07:43:00,75.0,72.0,29.95,SE,132,0.0,1.0,89,0.00,,,0.01,,2013-07-09 12:43:00,
2013-07-09 07:53:00,75.0,71.0,29.95,SE,132,0.0,0.0,88,0.00,,,0.01,,2013-07-09 12:53:00,
2013-07-09 08:01:00,75.0,71.0,29.95,SE,132,0.0,0.0,88,0.00,,,0.01,,2013-07-09 13:01:00,
2013-07-09 08:11:00,75.0,71.0,29.95,SE,132,0.0,0.0,88,0.00,,,0.01,,2013-07-09 13:11:00,
2013-07-09 08:22:00,76.0,72.0,29.95,SE,132,0.0,1.0,87,0.00,,,0.01,,2013-07-09 13:22:00,
2013-07-09 08:33:00,76.0,72.0,29.95,SE,132,0.0,0.0,87,0.00,,,0.01,,2013-07-09 13:33:00,
2013-07-09 08:43:00,76.0,72.0,29.95,SE,132,0.0,0.0,87,0.00,,,0.01,,2013-07-09 13:43:00,
2013-07-09 08:53:00,76.0,72.0,29.95,SE,132,0.0,1.0,87,0.00,,,0.01,,2013-07-09 13:53:00,
2013-07-09 09:01:00,77.0,72.0,29.95,SE,132,0.0,0.0,86,0.00,,,0.01,,2013-07-09 14:01:00,
2013-07-09 09:11:00,77.0,72.0,29.95,SE,132,0.0,0.0,86,0.00,,,0.01,,2013-07-09 14:11:00,
2013-07-09 09:22:00,78.0,73.0,29.95,SE,136,1.0,5.0,84,0.00,,,0.01,,2013-07-09 14:22:00,
2013-07-09 09:34:00,78.0,72.0,29.95,ESE,119,0.0,1.0,83,0.00,,,0.01,,2013-07-09 14:34:00,
2013-07-09 09:43:00,78.0,72.0,29.95,ESE,119,0.0,1.0,83,0.00,,,0.01,,2013-07-09 14:43:00,
2013-07-09 09:53:00,79.0,73.0,29.94,SE,129,0.0,3.0,82,0.00,,,0.01,,2013-07-09 14:53:00,
2013-07-09 10:02:00,79.0,73.0,29.94,SE,129,0.0,0.0,82,0.00,,,0.01,,2013-07-09 15:02:00,
2013-07-09 10:12:00,79.0,73.0,29.94,SE,129,0.0,0.0,82,0.00,,,0.01,,2013-07-09 15:12:00,
2013-07-09 10:22:00,79.0,73.0,29.95,SE,134,0.0,3.0,81,0.00,,,0.01,,2013-07-09 15:22:00,
2013-07-09 10:33:00,80.0,74.0,29.94,SE,134,0.0,1.0,81,0.00,,,0.01,,2013-07-09 15:33:00,
2013-07-09 10:43:00,80.0,74.0,29.94,SE,134,0.0,1.0,81,0.00,,,0.01,,2013-07-09 15:43:00,
2013-07-09 10:52:00,80.0,73.0,29.95,WNW,286,0.0,5.0,80,0.00,,,0.01,,2013-07-09 15:52:00,
2013-07-09 11:02:00,80.0,73.0,29.94,SW,218,0.0,1.0,80,0.00,,,0.01,,2013-07-09 16:02:00,
2013-07-09 11:11:00,80.0,73.0,29.94,SW,218,0.0,1.0,80,0.00,,,0.01,,2013-07-09 16:11:00,
2013-07-09 11:22:00,82.0,75.0,29.95,SW,214,0.0,3.0,79,0.00,,,0.01,,2013-07-09 16:22:00,
2013-07-09 11:34:00,82.0,74.0,29.95,SE,130,3.0,8.0,77,0.00,,,0.01,,2013-07-09 16:34:00,
2013-07-09 11:43:00,82.0,74.0,29.95,SE,130,3.0,8.0,77,0.00,,,0.01,,2013-07-09 16:43:00,
2013-07-09 11:53:00,83.0,74.0,29.95,WNW,300,2.0,6.0,74,0.00,,,0.01,,2013-07-09 16:53:00,
2013-07-09 12:02:00,83.0,74.0,29.94,West,260,0.0,8.0,74,0.00,,,0.01,,2013-07-09 17:02:00,
2013-07-09 12:11:00,83.0,74.0,29.94,West,260,0.0,8.0,74,0.00,,,0.01,,2013-07-09 17:11:00,
2013-07-09 12:22:00,85.0,75.0,29.94,NW,309,1.0,5.0,73,0.00,,,0.01,,2013-07-09 17:22:00,
2013-07-09 12:35:00,86.0,75.0,29.94,South,173,0.0,6.0,70,0.00,,,0.01,,2013-07-09 17:35:00,
2013-07-09 12:45:00,86.0,75.0,29.94,South,173,0.0,6.0,70,0.00,,,0.01,,2013-07-09 17:45:00,
2013-07-09 12:53:00,86.0,74.0,29.93,SSW,205,1.0,14.0,68,0.00,,,0.01,,2013-07-09 17:53:00,
2013-07-09 13:02:00,87.0,75.0,29.92,SSE,153,3.0,10.0,67,0.00,,,0.01,,2013-07-09 18:02:00,
2013-07-09 13:11:00,87.0,75.0,29.92,SSE,153,3.0,10.0,67,0.00,,,0.01,,2013-07-09 18:11:00,
2013-07-09 13:22:00,88.0,75.0,29.92,SSE,162,2.0,9.0,66,0.00,,,0.01,,2013-07-09 18:22:00,
2013-07-09 13:32:00,88.0,74.0,29.91,SE,136,3.0,9.0,64,0.00,,,0.01,,2013-07-09 18:32:00,
2013-07-09 13:43:00,88.0,74.0,29.91,SE,136,3.0,9.0,64,0.00,,,0.01,,2013-07-09 18:43:00,
2013-07-09 13:52:00,89.0,75.0,29.91,SE,134,2.0,14.0,64,0.00,,,0.01,,2013-07-09 18:52:00,
2013-07-09 14:01:00,89.0,75.0,29.90,SE,146,3.0,6.0,64,0.00,,,0.01,,2013-07-09 19:01:00,
2013-07-09 14:11:00,89.0,75.0,29.90,SE,146,3.0,6.0,64,0.00,,,0.01,,2013-07-09 19:11:00,
2013-07-09 14:22:00,90.0,75.0,29.90,SE,138,3.0,8.0,61,0.00,,,0.01,,2013-07-09 19:22:00,
2013-07-09 14:33:00,91.0,76.0,29.90,SE,139,1.0,6.0,61,0.00,,,0.01,,2013-07-09 19:33:00,
2013-07-09 14:42:00,91.0,76.0,29.90,SE,139,1.0,6.0,61,0.00,,,0.01,,2013-07-09 19:42:00,
2013-07-09 14:52:00,90.0,74.0,29.90,SSE,166,2.0,16.0,60,0.00,,,0.01,,2013-07-09 19:52:00,
2013-07-09 15:01:00,89.0,74.0,29.89,SSE,164,2.0,6.0,61,0.00,,,0.01,,2013-07-09 20:01:00,
2013-07-09 15:11:00,89.0,74.0,29.89,SSE,164,2.0,6.0,61,0.00,,,0.01,,2013-07-09 20:11:00,
2013-07-09 15:22:00,90.0,74.0,29.89,SW,221,5.0,16.0,60,0.00,,,0.01,,2013-07-09 20:22:00,
2013-07-09 15:32:00,89.0,74.0,29.89,SSE,154,0.0,6.0,61,0.00,,,0.01,,2013-07-09 20:32:00,
2013-07-09 15:42:00,89.0,74.0,29.89,SSE,154,0.0,6.0,61,0.00,,,0.01,,2013-07-09 20:42:00,
2013-07-09 15:52:00,89.0,75.0,29.88,West,265,1.0,3.0,63,0.00,,,0.01,,2013-07-09 20:52:00,
2013-07-09 16:01:00,89.0,74.0,29.88,ENE,63,2.0,6.0,62,0.00,,,0.01,,2013-07-09 21:01:00,
2013-07-09 16:11:00,89.0,74.0,29.88,ENE,63,2.0,6.0,62,0.00,,,0.01,,2013-07-09 21:11:00,
2013-07-09 16:22:00,90.0,75.0,29.87,ESE,120,3.0,15.0,62,0.00,,,0.01,,2013-07-09 21:22:00,
2013-07-09 16:32:00,90.0,76.0,29.87,SSE,151,1.0,6.0,63,0.00,,,0.01,,2013-07-09 21:32:00,
2013-07-09 16:42:00,90.0,76.0,29.87,SSE,151,1.0,6.0,63,0.00,,,0.01,,2013-07-09 21:42:00,
2013-07-09 16:52:00,89.0,76.0,29.86,SW,232,0.0,10.0,65,0.00,,,0.01,,2013-07-09 21:52:00,
2013-07-09 17:01:00,88.0,75.0,29.86,WSW,243,0.0,1.0,66,0.00,,,0.01,,2013-07-09 22:01:00,
2013-07-09 17:11:00,88.0,75.0,29.86,WSW,243,0.0,1.0,66,0.00,,,0.01,,2013-07-09 22:11:00,
2013-07-09 17:22:00,87.0,77.0,29.85,SE,138,0.0,5.0,72,0.00,,,0.01,,2013-07-09 22:22:00,
2013-07-09 17:33:00,85.0,76.0,29.85,SE,138,0.0,1.0,75,0.00,,,0.01,,2013-07-09 22:33:00,
2013-07-09 17:42:00,85.0,76.0,29.85,SE,138,0.0,1.0,75,0.00,,,0.01,,2013-07-09 22:42:00,
2013-07-09 17:53:00,85.0,76.0,29.85,SE,138,0.0,1.0,75,0.00,,,0.01,,2013-07-09 22:53:00,
2013-07-09 18:02:00,85.0,76.0,29.85,SE,138,0.0,0.0,75,0.00,,,0.01,,2013-07-09 23:02:00,
2013-07-09 18:11:00,85.0,76.0,29.85,SE,138,0.0,0.0,75,0.00,,,0.01,,2013-07-09 23:11:00,
2013-07-09 18:22:00,85.0,77.0,29.85,SE,138,0.0,0.0,76,0.00,,,0.01,,2013-07-09 23:22:00,
2013-07-09 18:33:00,85.0,77.0,29.85,SE,138,0.0,0.0,76,0.00,,,0.01,,2013-07-09 23:33:00,
2013-07-09 18:43:00,85.0,77.0,29.85,SE,138,0.0,0.0,76,0.00,,,0.01,,2013-07-09 23:43:00,
2013-07-09 18:53:00,85.0,77.0,29.85,SE,138,0.0,3.0,76,0.00,,,0.01,,2013-07-09 23:53:00,
2013-07-09 19:01:00,85.0,77.0,29.85,SE,138,0.0,1.0,76,0.00,,,0.01,,2013-07-10 00:01:00,
2013-07-09 19:11:00,85.0,77.0,29.85,SE,138,0.0,1.0,76,0.00,,,0.01,,2013-07-10 00:11:00,
2013-07-09 19:22:00,85.0,77.0,29.84,SE,138,0.0,1.0,77,0.00,,,0.01,,2013-07-10 00:22:00,
2013-07-09 19:33:00,85.0,77.0,29.84,SE,138,0.0,3.0,77,0.00,,,0.01,,2013-07-10 00:33:00,
2013-07-09 19:42:00,85.0,77.0,29.84,SE,138,0.0,3.0,77,0.00,,,0.01,,2013-07-10 00:42:00,
2013-07-09 19:52:00,84.0,76.0,29.83,SE,138,0.0,3.0,78,0.00,,,0.01,,2013-07-10 00:52:00,
2013-07-09 20:01:00,84.0,76.0,29.84,SE,138,0.0,0.0,78,0.00,,,0.01,,2013-07-10 01:01:00,
2013-07-09 20:11:00,84.0,76.0,29.84,SE,138,0.0,0.0,78,0.00,,,0.01,,2013-07-10 01:11:00,
2013-07-09 20:22:00,84.0,76.0,29.83,SE,138,0.0,3.0,77,0.00,,,0.01,,2013-07-10 01:22:00,
2013-07-09 20:33:00,84.0,76.0,29.83,SE,138,1.0,1.0,78,0.00,,,0.01,,2013-07-10 01:33:00,
2013-07-09 20:43:00,84.0,76.0,29.83,SE,138,1.0,1.0,78,0.00,,,0.01,,2013-07-10 01:43:00,
2013-07-09 20:53:00,83.0,75.0,29.84,ESE,111,0.0,3.0,77,0.00,,,0.01,,2013-07-10 01:53:00,
2013-07-09 21:02:00,83.0,75.0,29.84,SE,132,0.0,1.0,77,0.00,,,0.01,,2013-07-10 02:02:00,
2013-07-09 21:11:00,83.0,75.0,29.84,SE,132,0.0,1.0,77,0.00,,,0.01,,2013-07-10 02:11:00,
2013-07-09 21:22:00,83.0,75.0,29.84,SE,132,0.0,0.0,77,0.00,,,0.01,,2013-07-10 02:22:00,
2013-07-09 21:34:00,83.0,75.0,29.84,ESE,104,0.0,1.0,77,0.00,,,0.01,,2013-07-10 02:34:00,
2013-07-09 21:43:00,83.0,75.0,29.84,ESE,104,0.0,1.0,77,0.00,,,0.01,,2013-07-10 02:43:00,
2013-07-09 21:53:00,83.0,75.0,29.84,ESE,105,0.0,1.0,77,0.00,,,0.01,,2013-07-10 02:53:00,
2013-07-09 22:01:00,83.0,75.0,29.84,SSE,162,0.0,3.0,77,0.00,,,0.01,,2013-07-10 03:01:00,
2013-07-09 22:12:00,83.0,75.0,29.84,SSE,162,0.0,3.0,77,0.00,,,0.01,,2013-07-10 03:12:00,
2013-07-09 22:22:00,82.0,74.0,29.84,WNW,293,0.0,5.0,76,0.00,,,0.01,,2013-07-10 03:22:00,
2013-07-09 22:32:00,82.0,74.0,29.85,WNW,293,0.0,0.0,77,0.00,,,0.01,,2013-07-10 03:32:00,
2013-07-09 22:43:00,82.0,74.0,29.85,WNW,293,0.0,0.0,77,0.00,,,0.01,,2013-07-10 03:43:00,
2013-07-09 22:52:00,82.0,74.0,29.85,ENE,76,0.0,3.0,77,0.00,,,0.01,,2013-07-10 03:52:00,
2013-07-09 23:01:00,82.0,74.0,29.85,East,101,0.0,5.0,78,0.00,,,0.01,,2013-07-10 04:01:00,
2013-07-09 23:11:00,82.0,74.0,29.85,East,101,0.0,5.0,78,0.00,,,0.01,,2013-07-10 04:11:00,
2013-07-09 23:22:00,81.0,73.0,29.85,SSE,156,0.0,5.0,78,0.00,,,0.01,,2013-07-10 04:22:00,
2013-07-09 23:32:00,81.0,73.0,29.85,SE,131,0.0,1.0,78,0.00,,,0.01,,2013-07-10 04:32:00,
2013-07-09 23:43:00,81.0,73.0,29.85,SE,131,0.0,1.0,78,0.00,,,0.01,,2013-07-10 04:43:00,
2013-07-09 23:52:00,81.0,74.0,29.85,SSE,148,1.0,3.0,79,0.00,,,0.01,,2013-07-10 04:52:00,